Location: Beulah
(33.1426°N, 83.0557°W)
Time: 07:38:35
(UTC+00:00)

ISS - Visible Passes

Search period start: 04 December 2021 00:00
Search period end: 14 December 2021 00:00
Orbit: 417 x 423 km, 51.6° (Epoch: 04 December)

Date Brightness Start Highest point End Pass type
(mag) Time Alt. Az. Time Alt. Az. Time Alt. Az.
06 Dec -1.9 00:03:33 10° NNW 00:05:02 22° NNW 00:05:02 22° NNW visible
06 Dec -2.4 23:16:25 10° NNW 23:19:08 22° NE 23:20:19 18° ENE visible
07 Dec -0.5 00:52:57 10° WNW 00:53:21 12° WNW 00:53:21 12° WNW visible
08 Dec -3.3 00:05:12 10° NW 00:08:32 59° SW 00:09:01 51° S visible
08 Dec -3.8 23:17:38 10° NW 23:21:00 69° NE 23:24:21 10° SE visible
10 Dec -0.6 00:07:47 10° W 00:09:56 16° SW 00:12:04 10° SSW visible
10 Dec -1.6 23:19:28 10° WNW 23:22:27 29° SW 23:25:25 10° SSE visible
